When you browse on this site, cookies collect data to enhance your experience and personalize the content and advertising you see.
Visit our Privacy Policy to learn more. By continuing to use the site, you agree to this use of cookies and data.
  • In United Kingdom
  • List of Countries
  • For 7 days
  • Water Temperature
  • Satellite Maps
  • Weather Map
  • Weather Widgets
  • user-avatar
    Login

    Hourly Weather Navoiy

    Today, 24 March, Sunday

    Time Temperature Precipitation Wind Pressure Humidity
    00:00 +9°C° 0 mm 3 mps 732 mmHg 71%
    01:00 +9°C° 0 mm 2 mps 732 mmHg 70%
    02:00 +8°C° 0 mm 2 mps 732 mmHg 72%
    03:00 +8°C° 0 mm 2 mps 732 mmHg 73%
    04:00 +7°C° 0 mm 2 mps 731 mmHg 75%
    05:00 +8°C° 0 mm 2 mps 732 mmHg 73%
    06:00 +8°C° 0 mm 3 mps 732 mmHg 71%
    07:00 +8°C° 0 mm 3 mps 732 mmHg 69%
    08:00 +10°C° 0 mm 3 mps 732 mmHg 61%
    09:00 +12°C° 0 mm 3 mps 731 mmHg 52%
    10:00 +13°C° 0 mm 3 mps 731 mmHg 44%
    11:00 +14°C° 0 mm 3 mps 730 mmHg 41%
    12:00 +16°C° 0 mm 2 mps 730 mmHg 38%
    13:00 +18°C° 0 mm 1 mps 730 mmHg 35%
    14:00 +19°C° 0 mm 1 mps 729 mmHg 35%
    15:00 +19°C° 0 mm 1 mps 729 mmHg 34%
    16:00 +19°C° 0 mm 1 mps 729 mmHg 33%
    17:00 +18°C° 0 mm 1 mps 729 mmHg 37%
    18:00 +18°C° 0 mm 1 mps 729 mmHg 41%
    19:00 +16°C° 0 mm 1 mps 729 mmHg 45%
    20:00 +15°C° 0 mm 2 mps 728 mmHg 45%
    21:00 +15°C° 0 mm 2 mps 728 mmHg 44%
    22:00 +14°C° 0 mm 3 mps 728 mmHg 44%
    23:00 +13°C° 0 mm 4 mps 728 mmHg 47%

    Tomorrow, 25 March, Monday

    Time Temperature Precipitation Wind Pressure Humidity
    00:00 +13°C° 0 mm 4 mps 728 mmHg 50%
    01:00 +12°C° 0 mm 5 mps 728 mmHg 54%
    02:00 +12°C° 0 mm 5 mps 728 mmHg 54%
    03:00 +12°C° 0 mm 4 mps 728 mmHg 53%
    04:00 +12°C° 0 mm 4 mps 728 mmHg 53%
    05:00 +12°C° 0 mm 5 mps 728 mmHg 50%
    06:00 +13°C° 0 mm 5 mps 728 mmHg 47%
    07:00 +14°C° 0 mm 6 mps 728 mmHg 44%
    08:00 +16°C° 0 mm 5 mps 728 mmHg 38%
    09:00 +20°C° 0 mm 5 mps 728 mmHg 32%
    10:00 +22°C° 0 mm 5 mps 728 mmHg 26%
    11:00 +23°C° 0 mm 5 mps 728 mmHg 25%
    12:00 +25°C° 0 mm 5 mps 728 mmHg 24%
    13:00 +26°C° 0 mm 5 mps 728 mmHg 23%
    14:00 +26°C° 0 mm 4 mps 727 mmHg 23%
    15:00 +27°C° 0 mm 4 mps 727 mmHg 23%
    16:00 +27°C° 0 mm 3 mps 726 mmHg 23%
    17:00 +25°C° 0 mm 3 mps 726 mmHg 25%
    18:00 +24°C° 0 mm 3 mps 726 mmHg 28%
    19:00 +22°C° 0 mm 3 mps 726 mmHg 30%
    20:00 +21°C° 0 mm 4 mps 726 mmHg 31%
    21:00 +21°C° 0 mm 5 mps 726 mmHg 31%
    22:00 +20°C° 0 mm 6 mps 726 mmHg 32%
    23:00 +20°C° 0 mm 6 mps 726 mmHg 32%

    Day after tomorrow, 26 March, Tuesday

    Time Temperature Precipitation Wind Pressure Humidity
    00:00 +19°C° 0 mm 6 mps 726 mmHg 33%
    01:00 +18°C° 0 mm 7 mps 726 mmHg 33%
    02:00 +19°C° 0 mm 6 mps 725 mmHg 33%
    03:00 +19°C° 0 mm 6 mps 725 mmHg 32%
    04:00 +17°C° 0 mm 6 mps 725 mmHg 32%
    05:00 +19°C° 0 mm 6 mps 725 mmHg 32%
    06:00 +19°C° 0 mm 6 mps 725 mmHg 31%
    07:00 +19°C° 0 mm 6 mps 725 mmHg 30%
    08:00 +20°C° 0 mm 6 mps 725 mmHg 30%
    09:00 +20°C° 0 mm 5 mps 725 mmHg 29%
    10:00 +21°C° 0 mm 5 mps 725 mmHg 28%
    11:00 +21°C° 0.1 mm 5 mps 725 mmHg 37%
    12:00 +20°C° 0.1 mm 6 mps 725 mmHg 45%
    13:00 +19°C° 0.1 mm 6 mps 725 mmHg 54%
    14:00 +17°C° 0.7 mm 5 mps 725 mmHg 58%
    15:00 +16°C° 0.7 mm 5 mps 725 mmHg 62%
    16:00 +15°C° 0.7 mm 5 mps 725 mmHg 66%
    17:00 +14°C° 1.1 mm 4 mps 726 mmHg 72%
    18:00 +14°C° 1.1 mm 3 mps 726 mmHg 78%
    19:00 +15°C° 1.1 mm 2 mps 727 mmHg 83%
    20:00 +15°C° 0 mm 2 mps 727 mmHg 83%
    21:00 +15°C° 0 mm 2 mps 727 mmHg 84%
    22:00 +15°C° 0 mm 2 mps 727 mmHg 84%
    23:00 +15°C° 0.1 mm 2 mps 727 mmHg 83%

    27 March, Wednesday

    Time Temperature Precipitation Wind Pressure Humidity
    00:00 +15°C° 0.1 mm 1 mps 726 mmHg 83%
    01:00 +15°C° 0.1 mm 1 mps 726 mmHg 82%
    02:00 +15°C° 2.6 mm 2 mps 726 mmHg 84%
    03:00 +14°C° 2.6 mm 3 mps 726 mmHg 86%
    04:00 +14°C° 2.6 mm 4 mps 726 mmHg 87%
    05:00 +14°C° 0 mm 3 mps 726 mmHg 83%
    06:00 +16°C° 0 mm 3 mps 726 mmHg 78%
    07:00 +16°C° 0 mm 3 mps 725 mmHg 73%
    08:00 +17°C° 0 mm 3 mps 725 mmHg 69%
    09:00 +17°C° 0 mm 3 mps 725 mmHg 65%
    10:00 +18°C° 0 mm 3 mps 725 mmHg 60%
    11:00 +18°C° 0.2 mm 3 mps 725 mmHg 62%
    12:00 +18°C° 0.2 mm 3 mps 725 mmHg 63%
    13:00 +19°C° 0.2 mm 3 mps 725 mmHg 64%
    14:00 +18°C° 0.4 mm 4 mps 725 mmHg 67%
    15:00 +17°C° 0.4 mm 5 mps 725 mmHg 69%
    16:00 +16°C° 0.4 mm 6 mps 725 mmHg 72%
    17:00 +16°C° 0 mm 5 mps 725 mmHg 75%
    18:00 +16°C° 0 mm 3 mps 725 mmHg 77%
    19:00 +16°C° 0 mm 2 mps 725 mmHg 79%
    20:00 +16°C° 0 mm 2 mps 725 mmHg 79%
    21:00 +16°C° 0 mm 2 mps 725 mmHg 79%
    22:00 +16°C° 0 mm 2 mps 725 mmHg 79%
    23:00 +16°C° 0 mm 2 mps 725 mmHg 78%

    28 March, Thursday

    Time Temperature Precipitation Wind Pressure Humidity
    00:00 +16°C° 0 mm 2 mps 725 mmHg 78%
    01:00 +16°C° 0 mm 3 mps 725 mmHg 77%
    02:00 +15°C° 0.3 mm 2 mps 725 mmHg 79%
    03:00 +15°C° 0.3 mm 2 mps 725 mmHg 80%
    04:00 +15°C° 0.3 mm 2 mps 725 mmHg 82%
    05:00 +14°C° 0.8 mm 3 mps 726 mmHg 82%
    06:00 +14°C° 0.8 mm 4 mps 726 mmHg 83%
    07:00 +15°C° 0.8 mm 4 mps 727 mmHg 83%
    08:00 +15°C° 0.5 mm 4 mps 727 mmHg 83%
    09:00 +16°C° 0.5 mm 3 mps 727 mmHg 84%
    10:00 +16°C° 0.5 mm 2 mps 727 mmHg 84%
    11:00 +17°C° 0.1 mm 2 mps 728 mmHg 78%
    12:00 +18°C° 0.1 mm 2 mps 728 mmHg 72%
    13:00 +19°C° 0.1 mm 3 mps 728 mmHg 66%
    14:00 +19°C° 0 mm 3 mps 728 mmHg 61%
    15:00 +19°C° 0 mm 4 mps 728 mmHg 56%
    16:00 +20°C° 0 mm 4 mps 728 mmHg 51%
    17:00 +19°C° 0 mm 4 mps 728 mmHg 53%
    18:00 +18°C° 0 mm 4 mps 728 mmHg 54%
    19:00 +17°C° 0 mm 3 mps 728 mmHg 56%
    20:00 +16°C° 0 mm 3 mps 728 mmHg 56%
    21:00 +16°C° 0 mm 3 mps 728 mmHg 57%
    22:00 +14°C° 0 mm 3 mps 728 mmHg 58%
    23:00 +14°C° 0 mm 3 mps 728 mmHg 59%

    29 March, Friday

    Time Temperature Precipitation Wind Pressure Humidity
    00:00 +14°C° 0 mm 2 mps 728 mmHg 60%
    01:00 +14°C° 0 mm 2 mps 728 mmHg 60%
    02:00 +13°C° 0 mm 3 mps 728 mmHg 62%
    03:00 +13°C° 0 mm 3 mps 728 mmHg 63%
    04:00 +12°C° 0 mm 3 mps 728 mmHg 64%
    05:00 +13°C° 0 mm 4 mps 728 mmHg 64%
    06:00 +13°C° 0 mm 4 mps 728 mmHg 63%
    07:00 +13°C° 0 mm 4 mps 728 mmHg 62%
    08:00 +14°C° 0 mm 5 mps 728 mmHg 59%
    09:00 +15°C° 0 mm 6 mps 727 mmHg 57%
    10:00 +16°C° 0 mm 6 mps 727 mmHg 54%
    11:00 +17°C° 0 mm 7 mps 727 mmHg 53%
    12:00 +17°C° 0 mm 8 mps 726 mmHg 51%
    13:00 +17°C° 0 mm 8 mps 726 mmHg 50%
    14:00 +17°C° 0.5 mm 8 mps 726 mmHg 54%
    15:00 +16°C° 0.5 mm 7 mps 726 mmHg 58%
    16:00 +15°C° 0.5 mm 7 mps 727 mmHg 62%
    17:00 +14°C° 0.5 mm 6 mps 727 mmHg 65%
    18:00 +14°C° 0.5 mm 5 mps 728 mmHg 67%
    19:00 +13°C° 0.5 mm 4 mps 728 mmHg 69%
    20:00 +13°C° 0.1 mm 4 mps 729 mmHg 69%
    21:00 +13°C° 0.1 mm 3 mps 729 mmHg 68%
    22:00 +12°C° 0.1 mm 3 mps 730 mmHg 68%
    23:00 +13°C° 0 mm 2 mps 730 mmHg 69%
    Show more